HK128A SCDA-SABE

Flight info

Callsign HK128A
Flight time N/A
Altitude 340
Route AKNU4C AKNUV VUREL LOA PANED KONRIALGAR DILAL YUC PUBER DIKOR SISAP UMKEV PORKA PULOV OPTIR REPUM DOPRI ROKER ROS MULTA SNT SNT8Q
Aircraft HDJT/L-SDFGRWY/C

Departure

Time 2026-04-16 00:06
Airport Diego Aracena International Airport (SCDA)

Arrival

Time N/A
Airport Aeroparque Jorge Newbery (SABE)
Time Latitude Longitude Altitude Speed Heading
2026-04-15 23:51 -20.54617 -70.17950 151 ft 0 kts 192°
2026-04-15 23:58 -20.54630 -70.17955 152 ft 3 kts 198°
2026-04-15 23:58 -20.54687 -70.17978 153 ft 13 kts 212°
2026-04-15 23:58 -20.54752 -70.17997 154 ft 7 kts 182°
2026-04-15 23:59 -20.54779 -70.18008 155 ft 2 kts 212°
2026-04-15 23:59 -20.54818 -70.18022 156 ft 11 kts 185°
2026-04-15 23:59 -20.54901 -70.18029 157 ft 13 kts 182°
2026-04-15 23:59 -20.54999 -70.18039 159 ft 13 kts 195°
2026-04-16 00:00 -20.55027 -70.18101 159 ft 9 kts 272°
2026-04-16 00:00 -20.55027 -70.18106 159 ft 0 kts 272°
2026-04-16 00:01 -20.55024 -70.18162 159 ft 9 kts 272°
2026-04-16 00:01 -20.55000 -70.18208 159 ft 6 kts 350°
2026-04-16 00:01 -20.54959 -70.18207 159 ft 12 kts
2026-04-16 00:04 -20.54942 -70.18206 176 ft 0 kts
2026-04-16 00:05 -20.54848 -70.18201 157 ft 49 kts
2026-04-16 00:06 -20.54227 -70.18168 145 ft 126 kts
2026-04-16 00:06 -20.53192 -70.18095 390 ft 160 kts
2026-04-16 00:06 -20.52051 -70.17989 924 ft 173 kts
2026-04-16 00:06 -20.50901 -70.17779 1476 ft 173 kts 25°
2026-04-16 00:07 -20.50157 -70.16877 2055 ft 164 kts 78°
2026-04-16 00:07 -20.50363 -70.15749 2630 ft 159 kts 130°
2026-04-16 00:07 -20.51315 -70.15243 3144 ft 158 kts 182°
2026-04-16 00:07 -20.52289 -70.15714 3653 ft 158 kts 223°
2026-04-16 00:08 -20.53142 -70.16480 4140 ft 168 kts 216°
2026-04-16 00:08 -20.54179 -70.17199 4645 ft 187 kts 214°
2026-04-16 00:08 -20.55370 -70.17921 5151 ft 207 kts 206°
2026-04-16 00:08 -20.56807 -70.18373 5661 ft 226 kts 189°
2026-04-16 00:09 -20.58442 -70.18455 6113 ft 247 kts 181°
2026-04-16 00:09 -20.60223 -70.18474 6529 ft 260 kts 183°
2026-04-16 00:09 -20.62074 -70.18577 6927 ft 271 kts 185°
2026-04-16 00:09 -20.63975 -70.18703 7324 ft 276 kts 184°
2026-04-16 00:10 -20.65919 -70.18581 7722 ft 285 kts 167°
2026-04-16 00:10 -20.67761 -70.17835 8130 ft 283 kts 152°
2026-04-16 00:10 -20.69348 -70.16614 8545 ft 282 kts 139°
2026-04-16 00:10 -20.70849 -70.15301 8960 ft 284 kts 141°
2026-04-16 00:11 -20.72418 -70.14019 9467 ft 283 kts 141°
2026-04-16 00:11 -20.73973 -70.12704 9993 ft 287 kts 140°
2026-04-16 00:11 -20.75536 -70.11353 10513 ft 291 kts 140°
2026-04-16 00:11 -20.77128 -70.10005 11019 ft 293 kts 141°
2026-04-16 00:12 -20.78736 -70.08649 11543 ft 296 kts 142°
2026-04-16 00:12 -20.80409 -70.07347 12071 ft 299 kts 143°
2026-04-16 00:12 -20.82086 -70.06014 12610 ft 302 kts 143°
2026-04-16 00:12 -20.83778 -70.04666 13156 ft 305 kts 144°
2026-04-16 00:13 -20.85493 -70.03312 13716 ft 308 kts 144°
2026-04-16 00:13 -20.87222 -70.01947 14219 ft 310 kts 144°
2026-04-16 00:13 -20.88958 -70.00574 14720 ft 312 kts 144°
2026-04-16 00:13 -20.90706 -69.99189 15227 ft 314 kts 144°
2026-04-16 00:14 -20.92467 -69.97793 15743 ft 316 kts 144°
2026-04-16 00:14 -20.94243 -69.96392 16265 ft 318 kts 144°
2026-04-16 00:14 -20.96028 -69.94976 16800 ft 320 kts 144°
2026-04-16 00:14 -20.97821 -69.93551 17344 ft 322 kts 144°
2026-04-16 00:15 -20.99623 -69.92126 17897 ft 323 kts 144°
2026-04-16 00:15 -21.01429 -69.90694 18431 ft 323 kts 144°
2026-04-16 00:15 -21.03238 -69.89260 18919 ft 324 kts 144°
2026-04-16 00:15 -21.05047 -69.87824 19412 ft 324 kts 144°
2026-04-16 00:16 -21.06858 -69.86388 19913 ft 324 kts 144°
2026-04-16 00:16 -21.08662 -69.84953 20429 ft 323 kts 144°
2026-04-16 00:16 -21.10468 -69.83520 20947 ft 323 kts 144°
2026-04-16 00:16 -21.12271 -69.82090 21478 ft 322 kts 144°
2026-04-16 00:17 -21.14070 -69.80660 22018 ft 322 kts 144°
2026-04-16 00:17 -21.15864 -69.79233 22568 ft 321 kts 144°
2026-04-16 00:17 -21.17652 -69.77812 23128 ft 320 kts 144°
2026-04-16 00:17 -21.19507 -69.76507 23664 ft 318 kts 149°
2026-04-16 00:18 -21.21389 -69.75263 24053 ft 321 kts 149°
2026-04-16 00:18 -21.23286 -69.73988 24296 ft 322 kts 149°
2026-04-16 00:18 -21.25196 -69.72693 24542 ft 328 kts 149°
2026-04-16 00:18 -21.27150 -69.71376 24797 ft 335 kts 150°
2026-04-16 00:19 -21.29130 -69.70044 25052 ft 337 kts 150°
2026-04-16 00:19 -21.31117 -69.68704 25304 ft 338 kts 150°
2026-04-16 00:19 -21.33113 -69.67357 25559 ft 340 kts 150°
2026-04-16 00:19 -21.35118 -69.66005 25811 ft 341 kts 150°
2026-04-16 00:20 -21.37127 -69.64649 26066 ft 342 kts 150°
2026-04-16 00:20 -21.39146 -69.63284 26328 ft 344 kts 150°
2026-04-16 00:20 -21.41176 -69.61915 26595 ft 345 kts 150°
2026-04-16 00:20 -21.43216 -69.60537 26858 ft 347 kts 151°
2026-04-16 00:21 -21.45235 -69.59172 27126 ft 349 kts 151°
2026-04-16 00:21 -21.47292 -69.57781 27395 ft 350 kts 151°
2026-04-16 00:21 -21.49358 -69.56383 27668 ft 352 kts 151°
2026-04-16 00:21 -21.51433 -69.54981 27946 ft 354 kts 151°
2026-04-16 00:22 -21.53521 -69.53568 28223 ft 355 kts 152°
2026-04-16 00:22 -21.55617 -69.52149 28512 ft 357 kts 152°
2026-04-16 00:22 -21.57724 -69.50721 28794 ft 359 kts 152°
2026-04-16 00:22 -21.59123 -69.49774 28985 ft 360 kts 152°
2026-04-16 00:23 -21.61968 -69.47847 29377 ft 362 kts 152°
2026-04-16 00:23 -21.63381 -69.46889 29573 ft 364 kts 152°
2026-04-16 00:23 -21.65557 -69.45413 29871 ft 366 kts 152°
2026-04-16 00:23 -21.67683 -69.43971 30144 ft 368 kts 152°
2026-04-16 00:24 -21.69853 -69.42499 30401 ft 370 kts 152°
2026-04-16 00:24 -21.72034 -69.41019 30658 ft 372 kts 152°
2026-04-16 00:24 -21.74228 -69.39529 30921 ft 374 kts 152°
2026-04-16 00:24 -21.76436 -69.38029 31186 ft 376 kts 152°
2026-04-16 00:25 -21.78656 -69.36520 31454 ft 379 kts 152°
2026-04-16 00:25 -21.80889 -69.35002 31731 ft 380 kts 152°
2026-04-16 00:25 -21.83131 -69.33475 32029 ft 382 kts 152°
2026-04-16 00:25 -21.85376 -69.31946 32326 ft 383 kts 152°
2026-04-16 00:26 -21.87639 -69.30406 32490 ft 388 kts 153°
2026-04-16 00:26 -21.89937 -69.28842 32590 ft 392 kts 152°
2026-04-16 00:26 -21.94544 -69.25694 32710 ft 390 kts 152°
2026-04-16 00:27 -21.99125 -69.22572 32817 ft 390 kts 153°
2026-04-16 00:27 -22.03711 -69.19439 32925 ft 390 kts 152°
2026-04-16 00:28 -22.08300 -69.16304 33039 ft 391 kts 153°
2026-04-16 00:28 -22.12904 -69.13155 33146 ft 392 kts 152°
2026-04-16 00:29 -22.17516 -69.09997 33257 ft 393 kts 153°
2026-04-16 00:29 -22.22103 -69.06855 33410 ft 394 kts 153°
2026-04-16 00:30 -22.26734 -69.03681 33572 ft 395 kts 153°
2026-04-16 00:30 -22.31373 -69.00498 33730 ft 395 kts 153°
2026-04-16 00:31 -22.36018 -68.97307 33892 ft 397 kts 153°
2026-04-16 00:31 -22.40682 -68.94104 34052 ft 397 kts 153°
2026-04-16 00:32 -22.45350 -68.90891 34173 ft 398 kts 153°
2026-04-16 00:32 -22.50026 -68.87669 34278 ft 399 kts 151°
2026-04-16 00:33 -22.54498 -68.84031 34318 ft 404 kts 147°
2026-04-16 00:33 -22.58964 -68.80373 34284 ft 402 kts 148°
2026-04-16 00:34 -22.63421 -68.76721 34235 ft 402 kts 147°
2026-04-16 00:34 -22.67872 -68.73065 34191 ft 401 kts 148°
2026-04-16 00:35 -22.72323 -68.69411 34146 ft 402 kts 148°
2026-04-16 00:35 -22.76774 -68.65750 34106 ft 401 kts 148°
2026-04-16 00:36 -22.81222 -68.62092 34097 ft 402 kts 148°
2026-04-16 00:36 -22.85673 -68.58425 34099 ft 401 kts 148°
2026-04-16 00:37 -22.90121 -68.54761 34092 ft 401 kts 148°
2026-04-16 00:37 -22.94559 -68.51098 34084 ft 401 kts 147°
2026-04-16 00:38 -22.99000 -68.47432 34072 ft 401 kts 148°
2026-04-16 00:38 -23.03431 -68.43770 34059 ft 400 kts 148°
2026-04-16 00:39 -23.07859 -68.40108 34057 ft 400 kts 147°
2026-04-16 00:39 -23.12253 -68.36470 34040 ft 400 kts 147°
2026-04-16 00:40 -23.16706 -68.32781 34035 ft 400 kts 147°
2026-04-16 00:40 -23.21095 -68.29142 34029 ft 399 kts 148°
2026-04-16 00:41 -23.25511 -68.25477 34030 ft 399 kts 147°
2026-04-16 00:41 -23.29925 -68.21810 34029 ft 399 kts 147°
2026-04-16 00:42 -23.34342 -68.18139 34037 ft 399 kts 147°
2026-04-16 00:42 -23.38754 -68.14466 34048 ft 399 kts 147°
2026-04-16 00:43 -23.43163 -68.10796 34059 ft 399 kts 147°
2026-04-16 00:43 -23.47568 -68.07124 34071 ft 398 kts 147°
2026-04-16 00:44 -23.51964 -68.03458 34093 ft 398 kts 147°
2026-04-16 00:44 -23.56358 -67.99788 34118 ft 397 kts 147°
2026-04-16 00:45 -23.60743 -67.96123 34139 ft 397 kts 147°
2026-04-16 00:45 -23.65122 -67.92461 34162 ft 396 kts 147°
2026-04-16 00:46 -23.69496 -67.88799 34182 ft 396 kts 147°
2026-04-16 00:46 -23.73861 -67.85143 34200 ft 396 kts 147°
2026-04-16 00:47 -23.78229 -67.81481 34215 ft 396 kts 147°
2026-04-16 00:47 -23.82594 -67.77817 34230 ft 396 kts 147°
2026-04-16 00:48 -23.86963 -67.74147 34243 ft 396 kts 147°
2026-04-16 00:48 -23.91323 -67.70482 34248 ft 395 kts 148°
2026-04-16 00:50 -24.08813 -67.55745 34210 ft 399 kts 148°
2026-04-16 00:51 -24.13157 -67.52069 34206 ft 398 kts 147°
2026-04-16 00:51 -24.17504 -67.48285 34191 ft 399 kts 147°
2026-04-16 00:52 -24.21866 -67.44531 34176 ft 399 kts 147°
2026-04-16 00:52 -24.26175 -67.40796 34165 ft 397 kts 147°
2026-04-16 00:53 -24.30532 -67.37028 34151 ft 399 kts 147°
2026-04-16 00:53 -24.34882 -67.33257 34149 ft 398 kts 147°
2026-04-16 00:54 -24.39229 -67.29486 34141 ft 399 kts 147°
2026-04-16 00:54 -24.43582 -67.25708 34141 ft 399 kts 147°
2026-04-16 00:55 -24.47923 -67.21935 34126 ft 397 kts 147°
2026-04-16 00:55 -24.52260 -67.18164 34129 ft 398 kts 147°
2026-04-16 00:56 -24.56606 -67.14382 34137 ft 398 kts 147°
2026-04-16 00:56 -24.60945 -67.10599 34130 ft 398 kts 147°
2026-04-16 00:57 -24.67452 -67.04924 34134 ft 398 kts 147°
2026-04-16 00:58 -24.71787 -67.01140 34133 ft 398 kts 147°
2026-04-16 00:58 -24.76124 -66.97349 34132 ft 398 kts 147°
2026-04-16 00:59 -24.80455 -66.93559 34136 ft 397 kts 147°
2026-04-16 00:59 -24.84789 -66.89766 34131 ft 398 kts 147°
2026-04-16 01:00 -24.89117 -66.85967 34134 ft 397 kts 147°
2026-04-16 01:00 -24.93439 -66.82183 34137 ft 397 kts 147°
2026-04-16 01:01 -24.97763 -66.78382 34141 ft 398 kts 147°
2026-04-16 01:01 -25.02092 -66.74578 34145 ft 398 kts 147°
2026-04-16 01:02 -25.06422 -66.70771 34147 ft 398 kts 146°
2026-04-16 01:02 -25.10768 -66.66942 34144 ft 405 kts 146°
2026-04-16 01:03 -25.15242 -66.63004 34138 ft 418 kts 146°
2026-04-16 01:03 -25.19800 -66.58976 34144 ft 421 kts 146°
2026-04-16 01:04 -25.24367 -66.54946 34137 ft 420 kts 146°
2026-04-16 01:04 -25.28914 -66.50922 34127 ft 418 kts 146°
2026-04-16 01:05 -25.33465 -66.46901 34121 ft 419 kts 146°
2026-04-16 01:05 -25.38019 -66.42864 34123 ft 420 kts 145°
2026-04-16 01:06 -25.42572 -66.38826 34113 ft 419 kts 146°
2026-04-16 01:06 -25.47122 -66.34787 34119 ft 419 kts 146°
2026-04-16 01:07 -25.51671 -66.30749 34118 ft 419 kts 146°
2026-04-16 01:07 -25.56178 -66.26739 34111 ft 418 kts 146°
2026-04-16 01:08 -25.60713 -66.22701 34118 ft 418 kts 146°
2026-04-16 01:08 -25.65242 -66.18669 34116 ft 417 kts 146°
2026-04-16 01:09 -25.69760 -66.14637 34116 ft 417 kts 146°
2026-04-16 01:09 -25.74280 -66.10604 34121 ft 417 kts 146°
2026-04-16 01:10 -25.78067 -66.07215 34115 ft 417 kts 146°
2026-04-16 01:10 -25.82556 -66.03205 34116 ft 417 kts 146°
2026-04-16 01:11 -25.87070 -65.99164 34118 ft 417 kts 146°
2026-04-16 01:11 -25.91590 -65.95115 34120 ft 418 kts 146°
2026-04-16 01:12 -25.96106 -65.91063 34119 ft 417 kts 146°
2026-04-16 01:12 -26.00623 -65.87010 34119 ft 418 kts 146°
2026-04-16 01:13 -26.05151 -65.82940 34111 ft 419 kts 146°
2026-04-16 01:13 -26.09685 -65.78859 34114 ft 420 kts 146°
2026-04-16 01:14 -26.14230 -65.74771 34120 ft 420 kts 147°
2026-04-16 01:14 -26.18777 -65.70665 34109 ft 421 kts 147°
2026-04-16 01:15 -26.23316 -65.66573 34104 ft 419 kts 147°
2026-04-16 01:15 -26.27854 -65.62468 34105 ft 422 kts 147°
2026-04-16 01:16 -26.32411 -65.58346 34105 ft 422 kts 147°
2026-04-16 01:16 -26.36968 -65.54220 34106 ft 422 kts 147°
2026-04-16 01:17 -26.41514 -65.50096 34111 ft 421 kts 147°
2026-04-16 01:17 -26.46063 -65.45970 34078 ft 422 kts 147°
2026-04-16 01:18 -26.50605 -65.41843 34072 ft 421 kts 147°
2026-04-16 01:18 -26.55157 -65.37705 34067 ft 422 kts 147°
2026-04-16 01:19 -26.59711 -65.33558 34056 ft 422 kts 147°
2026-04-16 01:19 -26.64265 -65.29409 34044 ft 422 kts 147°
2026-04-16 01:20 -26.68820 -65.25251 34033 ft 422 kts 147°
2026-04-16 01:20 -26.73336 -65.21127 34029 ft 422 kts 147°
2026-04-16 01:21 -26.77882 -65.16971 34029 ft 422 kts 147°
2026-04-16 01:21 -26.82422 -65.12816 34030 ft 421 kts 147°
2026-04-16 01:22 -26.87174 -65.09113 34029 ft 412 kts 157°
2026-04-16 01:22 -26.92135 -65.05863 34028 ft 413 kts 155°
2026-04-16 01:23 -26.97073 -65.02577 34022 ft 412 kts 156°
2026-04-16 01:23 -27.02012 -64.99322 34019 ft 412 kts 156°
2026-04-16 01:24 -27.06937 -64.96049 34015 ft 411 kts 156°
2026-04-16 01:24 -27.11864 -64.92787 34002 ft 412 kts 156°
2026-04-16 01:25 -27.16794 -64.89508 33996 ft 411 kts 156°
2026-04-16 01:25 -27.21722 -64.86235 33990 ft 411 kts 156°
2026-04-16 01:26 -27.26641 -64.82961 33991 ft 411 kts 156°
2026-04-16 01:26 -27.31563 -64.79683 33983 ft 411 kts 156°
2026-04-16 01:27 -27.36483 -64.76402 33981 ft 411 kts 155°
2026-04-16 01:27 -27.41403 -64.73118 33983 ft 411 kts 155°
2026-04-16 01:28 -27.46325 -64.69829 33984 ft 411 kts 155°
2026-04-16 01:28 -27.51245 -64.66538 33989 ft 411 kts 155°
2026-04-16 01:29 -27.56168 -64.63240 33990 ft 411 kts 155°
2026-04-16 01:29 -27.61084 -64.59940 33991 ft 411 kts 155°
2026-04-16 01:30 -27.65953 -64.56671 33987 ft 412 kts 155°
2026-04-16 01:30 -27.70875 -64.53362 33979 ft 412 kts 155°
2026-04-16 01:31 -27.75798 -64.50049 33980 ft 412 kts 155°
2026-04-16 01:31 -27.80722 -64.46732 33980 ft 412 kts 155°
2026-04-16 01:32 -27.85641 -64.43413 33979 ft 412 kts 155°
2026-04-16 01:32 -27.90565 -64.40089 33980 ft 412 kts 155°
2026-04-16 01:33 -27.95492 -64.36758 33979 ft 413 kts 155°
2026-04-16 01:33 -28.00420 -64.33424 33983 ft 413 kts 155°
2026-04-16 01:34 -28.05345 -64.30088 33985 ft 413 kts 154°
2026-04-16 01:34 -28.10237 -64.26771 33988 ft 413 kts 154°
2026-04-16 01:35 -28.15198 -64.23403 33988 ft 413 kts 154°
2026-04-16 01:35 -28.20092 -64.20078 33981 ft 413 kts 154°
2026-04-16 01:36 -28.25015 -64.16729 33982 ft 413 kts 154°
2026-04-16 01:36 -28.29934 -64.13380 33985 ft 412 kts 154°
2026-04-16 01:37 -28.34850 -64.10030 33983 ft 412 kts 154°
2026-04-16 01:37 -28.39760 -64.06680 33984 ft 412 kts 154°
2026-04-16 01:38 -28.44671 -64.03327 33984 ft 412 kts 154°
2026-04-16 01:38 -28.49568 -63.99978 33980 ft 411 kts 154°
2026-04-16 01:39 -28.54476 -63.96620 33981 ft 411 kts 154°
2026-04-16 01:39 -28.59359 -63.93273 33983 ft 410 kts 154°
2026-04-16 01:40 -28.64257 -63.89914 33979 ft 410 kts 154°
2026-04-16 01:40 -28.69147 -63.86556 33982 ft 410 kts 154°
2026-04-16 01:41 -28.74036 -63.83195 33982 ft 410 kts 154°
2026-04-16 01:41 -28.78923 -63.79832 33979 ft 410 kts 154°
2026-04-16 01:42 -28.83802 -63.76457 33976 ft 411 kts 152°
2026-04-16 01:42 -28.88670 -63.73051 33979 ft 410 kts 153°
2026-04-16 01:43 -28.93544 -63.69673 33979 ft 410 kts 152°
2026-04-16 01:43 -28.98408 -63.66276 33982 ft 410 kts 153°
2026-04-16 01:44 -29.03248 -63.62906 33981 ft 410 kts 152°
2026-04-16 01:44 -29.08105 -63.59512 33982 ft 409 kts 152°
2026-04-16 01:45 -29.12965 -63.56116 33979 ft 410 kts 152°
2026-04-16 01:45 -29.17827 -63.52712 33981 ft 410 kts 152°
2026-04-16 01:46 -29.22691 -63.49304 33977 ft 410 kts 152°
2026-04-16 01:46 -29.27551 -63.45894 33980 ft 410 kts 152°
2026-04-16 01:47 -29.32413 -63.42480 33979 ft 410 kts 152°
2026-04-16 01:47 -29.37271 -63.39063 33979 ft 409 kts 152°
2026-04-16 01:48 -29.42126 -63.35646 33977 ft 410 kts 152°
2026-04-16 01:48 -29.46982 -63.32223 33977 ft 410 kts 152°
2026-04-16 01:49 -29.51830 -63.28781 33974 ft 410 kts 152°
2026-04-16 01:49 -29.56677 -63.25344 33972 ft 409 kts 152°
2026-04-16 01:50 -29.61522 -63.21901 33970 ft 409 kts 152°
2026-04-16 01:50 -29.66365 -63.18457 33968 ft 409 kts 152°
2026-04-16 01:51 -29.71208 -63.15007 33968 ft 410 kts 152°
2026-04-16 01:51 -29.76054 -63.11554 33967 ft 409 kts 151°
2026-04-16 01:52 -29.80896 -63.08097 33967 ft 410 kts 152°
2026-04-16 01:52 -29.85704 -63.04663 33968 ft 409 kts 151°
2026-04-16 01:53 -29.90541 -63.01202 33962 ft 409 kts 151°
2026-04-16 01:53 -29.95373 -62.97741 33961 ft 409 kts 151°
2026-04-16 01:54 -30.00202 -62.94279 33962 ft 408 kts 151°
2026-04-16 01:54 -30.05026 -62.90816 33956 ft 408 kts 151°
2026-04-16 01:55 -30.09852 -62.87348 33956 ft 408 kts 151°
2026-04-16 01:55 -30.14666 -62.83885 33960 ft 408 kts 151°
2026-04-16 01:56 -30.19483 -62.80414 33959 ft 408 kts 151°
2026-04-16 01:56 -30.24297 -62.76943 33957 ft 408 kts 151°
2026-04-16 01:57 -30.28298 -62.74054 33957 ft 408 kts 151°
2026-04-16 01:57 -30.33112 -62.70575 33955 ft 408 kts 151°
2026-04-16 01:58 -30.37915 -62.67099 33952 ft 407 kts 151°
2026-04-16 01:58 -30.42728 -62.63616 33952 ft 407 kts 151°
2026-04-16 01:59 -30.47533 -62.60133 33952 ft 407 kts 150°
2026-04-16 01:59 -30.52336 -62.56647 33951 ft 407 kts 150°
2026-04-16 02:00 -30.57145 -62.53154 33946 ft 408 kts 150°
2026-04-16 02:00 -30.61958 -62.49653 33946 ft 408 kts 150°
2026-04-16 02:01 -30.66771 -62.46148 33948 ft 408 kts 150°
2026-04-16 02:01 -30.71586 -62.42637 33941 ft 409 kts 150°
2026-04-16 02:02 -30.76403 -62.39121 33943 ft 409 kts 150°
2026-04-16 02:02 -30.81230 -62.35603 33943 ft 409 kts 150°
2026-04-16 02:03 -30.86066 -62.32103 33940 ft 410 kts 150°
2026-04-16 02:03 -30.90898 -62.28583 33946 ft 410 kts 150°
2026-04-16 02:04 -30.98157 -62.23300 33941 ft 410 kts 150°
2026-04-16 02:04 -31.02994 -62.19773 33940 ft 410 kts 150°
2026-04-16 02:05 -31.07832 -62.16245 33938 ft 410 kts 150°
2026-04-16 02:05 -31.12675 -62.12708 33939 ft 411 kts 150°
2026-04-16 02:06 -31.17517 -62.09168 33940 ft 411 kts 150°
2026-04-16 02:06 -31.22357 -62.05614 33942 ft 411 kts 149°
2026-04-16 02:07 -31.27183 -62.02013 33938 ft 412 kts 149°
2026-04-16 02:07 -31.32023 -61.98428 33934 ft 412 kts 149°
2026-04-16 02:08 -31.36833 -61.94844 33936 ft 413 kts 149°
2026-04-16 02:08 -31.41683 -61.91235 33935 ft 414 kts 149°
2026-04-16 02:09 -31.46538 -61.87612 33935 ft 414 kts 149°
2026-04-16 02:09 -31.51402 -61.83982 33935 ft 415 kts 149°
2026-04-16 02:10 -31.56269 -61.80343 33933 ft 416 kts 148°
2026-04-16 02:10 -31.61149 -61.76690 33931 ft 416 kts 148°
2026-04-16 02:11 -31.66027 -61.73034 33931 ft 416 kts 148°
2026-04-16 02:11 -31.70913 -61.69368 33927 ft 417 kts 148°
2026-04-16 02:12 -31.75804 -61.65693 33926 ft 417 kts 148°
2026-04-16 02:12 -31.80698 -61.62011 33924 ft 418 kts 148°
2026-04-16 02:13 -31.85597 -61.58320 33925 ft 418 kts 148°
2026-04-16 02:13 -31.90495 -61.54626 33924 ft 418 kts 148°
2026-04-16 02:14 -31.95390 -61.50929 33925 ft 418 kts 148°
2026-04-16 02:14 -32.00286 -61.47228 33924 ft 418 kts 148°
2026-04-16 02:15 -32.05187 -61.43517 33922 ft 418 kts 148°
2026-04-16 02:15 -32.10083 -61.39805 33915 ft 418 kts 148°
2026-04-16 02:16 -32.14976 -61.36091 33916 ft 418 kts 148°
2026-04-16 02:16 -32.19872 -61.32370 33916 ft 418 kts 148°
2026-04-16 02:17 -32.24764 -61.28647 33913 ft 418 kts 148°
2026-04-16 02:17 -32.29654 -61.24920 33916 ft 418 kts 148°